This demonstration page uses our WeatherBlox Daily Observations layout. Learn more.

Left ArrowRight Arrow

Hourly Observations for April 28, 2022

Temp ( °F °C ) Dew Point ( °F °C ) Humidity (%) Winds ( mph kmh ) Pressure ( in mb ) Visibility ( mi km ) Precip ( " mm )
12:53 am 00:53 Clear 64 17.8 54 12.2 70 70 S 9 15 29.79 1009 10 16 0.00 0.00
1:53 am 01:53 Clear 63 17.2 54 12.2 73 73 S 12 19 29.81 1010 10 16 0.00 0.00
2:53 am 02:53 Clear 60 15.6 54 12.2 80 80 S 12 19 29.79 1009 10 16 0.00 0.00
3:53 am 03:53 Clear 59 15 53 11.7 81 81 SSE 10 17 29.78 1009 10 16 0.00 0.00
4:53 am 04:53 Clear 58 14.4 53 11.7 84 84 SSE 9 15 29.78 1009 10 16 0.00 0.00
5:53 am 05:53 Clear 57 13.9 53 11.7 87 87 SSE 9 15 29.78 1008 10 16 0.00 0.00
6:53 am 06:53 Sunny 56 13.3 53 11.7 90 90 SSE 8 13 29.78 1009 10 16 0.00 0.00
7:53 am 07:53 Sunny 57 13.9 54 12.2 90 90 S 8 13 29.80 1009 10 16 0.00 0.00
8:53 am 08:53 Sunny 62 16.7 56 13.3 80 80 S 9 15 29.79 1009 10 16 0.00 0.00
9:53 am 09:53 Sunny 67 19.4 56 13.3 68 68 S 14 22 29.79 1009 10 16 0.00 0.00
10:53 am 10:53 Sunny 71 21.7 56 13.3 59 59 S 10 17 29.78 1009 10 16 0.00 0.00
11:53 am 11:53 Sunny 74 23.3 56 13.3 54 54 S 12 19 29.77 1008 10 16 0.00 0.00
12:53 pm 12:53 Sunny 77 25 56 13.3 48 48 SSW 8 13 29.75 1007 9 14 0.00 0.00
1:53 pm 13:53 Sunny 79 26.1 54 12.2 42 42 SSE 10 17 29.72 1007 10 16 0.00 0.00
2:53 pm 14:53 Sunny 80 26.7 53 11.7 39 39 SSE 10 17 29.70 1006 10 16 0.00 0.00
3:53 pm 15:53 Partly Cloudy 82 27.8 54 12.2 38 38 S 12 19 29.68 1005 10 16 0.00 0.00
4:53 pm 16:53 Mostly Sunny 81 27.2 54 12.2 39 39 S 14 22 29.66 1004 8 13 0.00 0.00
5:53 pm 17:53 Sunny 78 25.6 54 12.2 43 43 SSE 13 20 29.65 1004 10 16 0.00 0.00
6:53 pm 18:53 Sunny 76 24.4 54 12.2 47 47 SSE 8 13 29.63 1003 10 16 0.00 0.00
7:53 pm 19:53 Sunny 75 23.9 54 12.2 48 48 S 10 17 29.58 1002 10 16 0.00 0.00
8:53 pm 20:53 Clear 74 23.3 55 12.8 52 52 S 13 20 29.62 1003 10 16 0.00 0.00
9:53 pm 21:53 Clear 73 22.8 55 12.8 53 53 SSE 6 9 29.64 1004 10 16 0.00 0.00
10:53 pm 22:53 Clear 63 17.2 54 12.2 73 73 E 16 26 29.69 1005 10 16 0.00 0.00
11:53 pm 23:53 Mostly Clear 61 16.1 54 12.2 78 78 E 13 20 29.68 1005 10 16 0.00 0.00

Powered by AerisWeather